アトラス彗星

C/2020 N2 ( ATLAS )

English version
Home page
Updated on April 4, 2021

---------------------------------------------------------------------

・ プロフィール

発見日 2020年7月13日
発見光度 18.2等
発見者 Asteroid Terrestrial-Impact Last Alert System (ATLAS) search program

・ 軌道要素

Epoch 2020 Aug. 19.0 TT = JDT 2459080.5
T 2020 Aug. 23.70949 TT                                 Rudenko
q   1.7938068            (2000.0)            P               Q
z  +0.0098129      Peri.  331.22564     +0.24767325     -0.91559410
 +/-0.0000121      Node   257.07705     -0.81500107     -0.37368437
e   0.9823975      Incl.  161.03411     -0.52386183     +0.14848381
From 88 observations 2020 July 13-2021 Mar. 22, mean residual 0".5.

・ 光度変化

        m1 = 15.3 + 5 logΔ + 10.0 log r

---------------------------------------------------------------------

軌道要素はM.P.E.C. 2021-F115に掲載されたものです。
光度グラフはComet for Windowsで作成したものです。

---------------------------------------------------------------------

Copyright(C) Seiichi Yoshida (comet@aerith.net). All rights reserved.